Weather History for Langley AFB, VA

Change the Weather History Date:

Friday, September 6, 2013

  Actual Average Record
Temperature  
Mean Temperature 70 °F -  
Max Temperature 78 °F 81 °F 97 °F (1983)
Min Temperature 62 °F 66 °F 53 °F (1962)
Cooling Degree Days 5    
Growing Degree Days 20 (Base 50)    
Moisture  
Dew Point 60 °F    
Average Humidity 64    
Maximum Humidity 85    
Minimum Humidity 51    
Precipitation  
Precipitation 0.00 in - - ()
Sea Level Pressure  
Sea Level Pressure 30.16 in    
Wind  
Wind Speed 12 mph (ENE)    
Max Wind Speed 16 mph    
Max Gust Speed 18 mph    
Visibility 10 miles    
Events Rain    
Averages and records for this station are not official NWS values.
T = Trace of Precipitation, MM = Missing Value Source: NWS Daily Summary

Daily Weather History Graph

Daily Weather History Graph

Search for Another Location

Airport:

Trip Planner

Search our weather history database for the weather conditions in past years. The results will help you decide how hot, cold, wet, or windy it might be!

Date:

Astronomy

Sep. 06, 2013 Rise Set
Actual Time 6:40 AM EDT 7:26 PM EDT
Civil Twilight 6:14 AM EDT 7:52 PM EDT
Nautical Twilight 5:42 AM EDT 8:23 PM EDT
Astronomical Twilight 5:10 AM EDT 8:55 PM EDT
Moon 7:47 AM EDT (9/6) 7:52 PM EDT (9/6)
Length of Visible Light 13h 38m
Length of Day
12h 45m
New Moon, 1% of the Moon is Illuminated
Sep 6
New Moon
Sep 12
First Quarter
Sep 19
Full
Sep 26
Last Quarter
Oct 4
New

Hourly Weather History & Observations

Time (EDT) Temp. Dew Point Humidity Pressure Visibility Wind Dir Wind Speed Gust Speed Precip Events Conditions
12:58 AM 75.7 °F 64.8 °F 69% 30.08 in 10.0 mi North 6.9 mph - N/A   Clear
1:58 AM 75.2 °F 61.0 °F 61% 30.11 in 10.0 mi North 9.2 mph - N/A   Scattered Clouds
2:58 AM 73.8 °F 66.4 °F 78% 30.11 in 10.0 mi NE 16.1 mph - N/A   Mostly Cloudy
3:58 AM 72.9 °F 65.8 °F 79% 30.11 in 10.0 mi ENE 13.8 mph - N/A   Clear
4:58 AM 72.7 °F 63.0 °F 71% 30.13 in 10.0 mi ENE 15.0 mph - N/A   Mostly Cloudy
5:58 AM 72.9 °F 62.1 °F 69% 30.13 in 10.0 mi ENE 16.1 mph - N/A   Scattered Clouds
6:58 AM 72.7 °F 63.9 °F 74% 30.15 in 10.0 mi East 15.0 mph - N/A   Mostly Cloudy
7:03 AM 73.4 °F 62.6 °F 69% 30.13 in 10.0 mi East 16.1 mph - N/A   Mostly Cloudy
7:18 AM 73.4 °F 62.6 °F 69% 30.13 in 10.0 mi East 15.0 mph - N/A   Overcast
7:48 AM 73.4 °F 62.6 °F 69% 30.14 in 10.0 mi ENE 16.1 mph - N/A   Overcast
7:53 AM 73.4 °F 62.6 °F 69% 30.15 in 10.0 mi ENE 13.8 mph - N/A   Mostly Cloudy
7:58 AM 73.6 °F 61.9 °F 67% 30.17 in 10.0 mi East 15.0 mph - N/A   Mostly Cloudy
8:58 AM 75.4 °F 61.3 °F 62% 30.18 in 10.0 mi ENE 15.0 mph - N/A   Overcast
9:58 AM 75.7 °F 59.7 °F 57% 30.20 in 10.0 mi ENE 15.0 mph - N/A   Overcast
10:26 AM 77.0 °F 59.0 °F 54% 30.19 in 10.0 mi ENE 15.0 mph - N/A Rain Light Rain
10:40 AM 75.2 °F 59.0 °F 57% 30.19 in 10.0 mi ENE 16.1 mph - N/A   Mostly Cloudy
10:58 AM 77.0 °F 59.5 °F 55% 30.21 in 10.0 mi ENE 13.8 mph - 0.00 in   Overcast
11:58 AM 78.4 °F 59.4 °F 52% 30.21 in 10.0 mi East 12.7 mph - N/A   Scattered Clouds
12:58 PM 78.6 °F 59.4 °F 51% 30.21 in 10.0 mi ENE 13.8 mph - N/A   Scattered Clouds
1:58 PM 75.6 °F 59.0 °F 56% 30.20 in 10.0 mi ENE 12.7 mph 18.4 mph N/A   Scattered Clouds
2:58 PM 75.0 °F 58.1 °F 56% 30.19 in 10.0 mi ENE 12.7 mph - N/A   Clear
3:58 PM 77.5 °F 57.9 °F 51% 30.17 in 10.0 mi East 12.7 mph - N/A   Mostly Cloudy
4:58 PM 76.5 °F 58.1 °F 53% 30.16 in 10.0 mi East 11.5 mph - N/A   Scattered Clouds
5:58 PM 74.7 °F 56.8 °F 54% 30.16 in 10.0 mi East 9.2 mph - N/A   Clear
6:58 PM 72.7 °F 55.4 °F 55% 30.15 in 10.0 mi East 9.2 mph - N/A   Clear
7:58 PM 69.6 °F 55.0 °F 60% 30.15 in 10.0 mi East 6.9 mph - N/A   Clear
8:58 PM 68.9 °F 55.4 °F 62% 30.17 in 10.0 mi East 5.8 mph - N/A   Clear
9:58 PM 67.8 °F 55.4 °F 64% 30.17 in 10.0 mi East 6.9 mph - N/A   Partly Cloudy
10:58 PM 62.6 °F 57.6 °F 84% 30.17 in 10.0 mi NW 1.2 mph - N/A   Scattered Clouds
11:58 PM 62.8 °F 58.1 °F 85% 30.16 in 10.0 mi Calm Calm - N/A   Clear